Time,TemperatureF,DewpointF,PressureIn,WindDirection,WindDirectionDegrees,WindSpeedMPH,WindSpeedGustMPH,Humidity,HourlyPrecipIn,Conditions,Clouds,dailyrainin,SoftwareType,DateUTC
2013-04-29 00:04:00,54.8,50.0,29.90,South,179,4.0,8.0,83,0.00,,,0.00,weatherlink.com 1.10,2013-04-29 05:04:00,
2013-04-29 00:19:00,54.6,50.0,29.90,SSW,200,6.0,9.0,84,0.00,,,0.00,weatherlink.com 1.10,2013-04-29 05:19:00,
2013-04-29 00:34:00,54.4,50.0,29.91,South,185,5.0,7.0,84,0.00,,,0.00,weatherlink.com 1.10,2013-04-29 05:34:00,
2013-04-29 00:49:00,53.9,50.0,29.91,SSE,167,3.0,5.0,86,0.00,,,0.00,weatherlink.com 1.10,2013-04-29 05:49:00,
2013-04-29 01:04:00,53.7,50.0,29.90,SSE,164,3.0,7.0,87,0.00,,,0.00,weatherlink.com 1.10,2013-04-29 06:04:00,
2013-04-29 01:19:00,53.4,50.0,29.90,SSE,161,1.0,6.0,88,0.00,,,0.00,weatherlink.com 1.10,2013-04-29 06:19:00,
2013-04-29 01:34:00,53.5,50.0,29.90,SSE,167,2.0,6.0,89,0.00,,,0.00,weatherlink.com 1.10,2013-04-29 06:34:00,
2013-04-29 01:49:00,53.2,50.0,29.90,SSE,158,1.0,5.0,89,0.00,,,0.00,weatherlink.com 1.10,2013-04-29 06:49:00,
2013-04-29 02:04:00,53.0,50.0,29.89,SSE,161,2.0,7.0,90,0.00,,,0.00,weatherlink.com 1.10,2013-04-29 07:04:00,
2013-04-29 02:19:00,52.4,50.0,29.89,SSE,166,4.0,5.0,91,0.00,,,0.00,weatherlink.com 1.10,2013-04-29 07:19:00,
2013-04-29 02:34:00,52.2,50.0,29.89,SSE,162,1.0,6.0,91,0.00,,,0.00,weatherlink.com 1.10,2013-04-29 07:34:00,
2013-04-29 02:49:00,52.1,50.0,29.89,SSE,163,2.0,8.0,92,0.00,,,0.00,weatherlink.com 1.10,2013-04-29 07:49:00,
2013-04-29 03:04:00,52.2,50.0,29.89,South,176,3.0,6.0,92,0.00,,,0.00,weatherlink.com 1.10,2013-04-29 08:04:00,
2013-04-29 03:19:00,52.1,50.0,29.89,SSE,166,3.0,6.0,92,0.00,,,0.00,weatherlink.com 1.10,2013-04-29 08:19:00,
2013-04-29 03:34:00,52.0,50.0,29.89,SSE,162,1.0,6.0,93,0.00,,,0.00,weatherlink.com 1.10,2013-04-29 08:34:00,
2013-04-29 03:49:00,51.8,50.0,29.89,SSE,164,2.0,5.0,93,0.00,,,0.00,weatherlink.com 1.10,2013-04-29 08:49:00,
2013-04-29 04:04:00,51.3,49.0,29.89,SSE,166,4.0,4.0,93,0.00,,,0.00,weatherlink.com 1.10,2013-04-29 09:04:00,
2013-04-29 04:19:00,51.2,49.0,29.89,South,171,2.0,5.0,93,0.00,,,0.00,weatherlink.com 1.10,2013-04-29 09:19:00,
2013-04-29 04:34:00,51.5,50.0,29.89,SSE,168,3.0,4.0,93,0.00,,,0.00,weatherlink.com 1.10,2013-04-29 09:34:00,
2013-04-29 04:49:00,51.4,50.0,29.90,SSE,168,2.0,4.0,93,0.00,,,0.00,weatherlink.com 1.10,2013-04-29 09:49:00,
2013-04-29 05:05:00,51.9,50.0,29.90,South,188,4.0,6.0,92,0.00,,,0.00,weatherlink.com 1.10,2013-04-29 10:05:00,
2013-04-29 05:20:00,52.2,50.0,29.90,SSW,196,4.0,7.0,91,0.00,,,0.00,weatherlink.com 1.10,2013-04-29 10:20:00,
2013-04-29 05:35:00,52.2,50.0,29.90,South,188,3.0,7.0,91,0.00,,,0.00,weatherlink.com 1.10,2013-04-29 10:35:00,
2013-04-29 05:50:00,52.0,50.0,29.90,SSW,195,3.0,7.0,91,0.00,,,0.00,weatherlink.com 1.10,2013-04-29 10:50:00,
2013-04-29 06:05:00,52.4,50.0,29.90,SSW,198,4.0,7.0,91,0.00,,,0.00,weatherlink.com 1.10,2013-04-29 11:05:00,
2013-04-29 06:20:00,52.7,50.0,29.91,South,186,4.0,7.0,90,0.00,,,0.00,weatherlink.com 1.10,2013-04-29 11:20:00,
2013-04-29 06:35:00,53.4,50.0,29.91,South,190,5.0,7.0,89,0.00,,,0.00,weatherlink.com 1.10,2013-04-29 11:35:00,
2013-04-29 06:50:00,53.9,51.0,29.91,South,189,5.0,7.0,88,0.00,,,0.00,weatherlink.com 1.10,2013-04-29 11:50:00,
2013-04-29 07:05:00,54.4,51.0,29.92,South,188,4.0,6.0,88,0.00,,,0.00,weatherlink.com 1.10,2013-04-29 12:05:00,
2013-04-29 07:20:00,55.0,52.0,29.92,South,185,4.0,7.0,88,0.00,,,0.00,weatherlink.com 1.10,2013-04-29 12:20:00,
2013-04-29 07:35:00,56.4,53.0,29.92,SSW,202,3.0,5.0,88,0.00,,,0.00,weatherlink.com 1.10,2013-04-29 12:35:00,
2013-04-29 07:50:00,58.0,54.0,29.92,SSW,196,4.0,7.0,86,0.00,,,0.00,weatherlink.com 1.10,2013-04-29 12:50:00,
2013-04-29 08:05:00,60.2,55.0,29.92,WSW,254,3.0,10.0,83,0.00,,,0.00,weatherlink.com 1.10,2013-04-29 13:05:00,
2013-04-29 08:20:00,61.8,56.0,29.92,SSW,200,8.0,11.0,81,0.00,,,0.00,weatherlink.com 1.10,2013-04-29 13:20:00,
2013-04-29 08:35:00,63.4,56.0,29.92,WSW,240,6.0,13.0,78,0.00,,,0.00,weatherlink.com 1.10,2013-04-29 13:35:00,
2013-04-29 08:50:00,65.1,58.0,29.92,West,273,4.0,9.0,77,0.00,,,0.00,weatherlink.com 1.10,2013-04-29 13:50:00,
2013-04-29 09:05:00,66.4,58.0,29.91,SW,224,10.0,17.0,74,0.00,,,0.00,weatherlink.com 1.10,2013-04-29 14:05:00,
2013-04-29 09:20:00,67.7,59.0,29.91,West,263,8.0,13.0,74,0.00,,,0.00,weatherlink.com 1.10,2013-04-29 14:20:00,
2013-04-29 09:35:00,68.4,59.0,29.91,SW,222,10.0,17.0,73,0.00,,,0.00,weatherlink.com 1.10,2013-04-29 14:35:00,
2013-04-29 09:50:00,69.0,60.0,29.91,WSW,245,14.0,17.0,74,0.00,,,0.00,weatherlink.com 1.10,2013-04-29 14:50:00,
2013-04-29 10:05:00,70.0,60.0,29.90,SW,227,10.0,15.0,71,0.00,,,0.00,weatherlink.com 1.10,2013-04-29 15:05:00,
2013-04-29 10:20:00,70.3,61.0,29.90,WSW,238,15.0,17.0,72,0.00,,,0.00,weatherlink.com 1.10,2013-04-29 15:20:00,
2013-04-29 10:35:00,71.1,61.0,29.90,WSW,240,10.0,17.0,70,0.00,,,0.00,weatherlink.com 1.10,2013-04-29 15:35:00,
2013-04-29 10:50:00,71.8,62.0,29.90,WSW,258,4.0,12.0,70,0.00,,,0.00,weatherlink.com 1.10,2013-04-29 15:50:00,
2013-04-29 11:05:00,72.4,62.0,29.89,West,259,10.0,14.0,69,0.00,,,0.00,weatherlink.com 1.10,2013-04-29 16:05:00,
2013-04-29 11:20:00,72.8,61.0,29.89,SW,234,10.0,13.0,67,0.00,,,0.00,weatherlink.com 1.10,2013-04-29 16:20:00,
2013-04-29 11:35:00,73.7,61.0,29.89,SW,215,6.0,18.0,65,0.00,,,0.00,weatherlink.com 1.10,2013-04-29 16:35:00,
2013-04-29 11:50:00,74.2,61.0,29.88,SSW,201,6.0,15.0,64,0.00,,,0.00,weatherlink.com 1.10,2013-04-29 16:50:00,
2013-04-29 12:05:00,75.3,61.0,29.87,WSW,248,5.0,16.0,62,0.00,,,0.00,weatherlink.com 1.10,2013-04-29 17:05:00,
2013-04-29 12:20:00,76.6,62.0,29.86,WSW,246,4.0,20.0,60,0.00,,,0.00,weatherlink.com 1.10,2013-04-29 17:20:00,
2013-04-29 12:35:00,77.0,61.0,29.86,SW,223,7.0,13.0,58,0.00,,,0.00,weatherlink.com 1.10,2013-04-29 17:35:00,
2013-04-29 12:50:00,78.0,62.0,29.85,SSW,208,9.0,14.0,58,0.00,,,0.00,weatherlink.com 1.10,2013-04-29 17:50:00,
2013-04-29 13:05:00,78.3,61.0,29.84,SSW,205,4.0,13.0,56,0.00,,,0.00,weatherlink.com 1.10,2013-04-29 18:05:00,
2013-04-29 13:20:00,79.8,62.0,29.83,West,266,9.0,12.0,54,0.00,,,0.00,weatherlink.com 1.10,2013-04-29 18:20:00,
2013-04-29 13:35:00,80.1,62.0,29.82,South,176,7.0,16.0,55,0.00,,,0.00,weatherlink.com 1.10,2013-04-29 18:35:00,
2013-04-29 13:50:00,80.0,62.0,29.82,South,190,9.0,19.0,54,0.00,,,0.00,weatherlink.com 1.10,2013-04-29 18:50:00,
2013-04-29 14:05:00,80.7,61.0,29.81,SW,234,8.0,21.0,52,0.00,,,0.00,weatherlink.com 1.10,2013-04-29 19:05:00,
2013-04-29 14:21:00,82.0,62.0,29.81,SW,215,7.0,15.0,51,0.00,,,0.00,weatherlink.com 1.10,2013-04-29 19:21:00,
2013-04-29 14:36:00,82.0,60.0,29.80,WSW,238,9.0,15.0,47,0.00,,,0.00,weatherlink.com 1.10,2013-04-29 19:36:00,
2013-04-29 14:51:00,81.7,61.0,29.80,SSW,207,9.0,15.0,49,0.00,,,0.00,weatherlink.com 1.10,2013-04-29 19:51:00,
2013-04-29 15:06:00,82.5,61.0,29.79,SW,227,9.0,16.0,49,0.00,,,0.00,weatherlink.com 1.10,2013-04-29 20:06:00,
2013-04-29 15:21:00,82.8,59.0,29.79,WSW,248,10.0,22.0,45,0.00,,,0.00,weatherlink.com 1.10,2013-04-29 20:21:00,
2013-04-29 15:36:00,83.3,60.0,29.78,SSW,199,8.0,15.0,45,0.00,,,0.00,weatherlink.com 1.10,2013-04-29 20:36:00,
2013-04-29 15:51:00,83.4,60.0,29.77,WSW,244,17.0,17.0,46,0.00,,,0.00,weatherlink.com 1.10,2013-04-29 20:51:00,
2013-04-29 16:06:00,81.0,58.0,29.77,West,273,8.0,14.0,46,0.00,,,0.00,weatherlink.com 1.10,2013-04-29 21:06:00,
2013-04-29 16:21:00,82.8,57.0,29.77,SSW,206,9.0,20.0,42,0.00,,,0.00,weatherlink.com 1.10,2013-04-29 21:21:00,
2013-04-29 16:36:00,81.3,59.0,29.76,WSW,239,7.0,13.0,47,0.00,,,0.00,weatherlink.com 1.10,2013-04-29 21:36:00,
2013-04-29 16:51:00,82.8,57.0,29.76,South,181,4.0,16.0,42,0.00,,,0.00,weatherlink.com 1.10,2013-04-29 21:51:00,
2013-04-29 17:06:00,83.5,57.0,29.76,SW,215,11.0,19.0,40,0.00,,,0.00,weatherlink.com 1.10,2013-04-29 22:06:00,
2013-04-29 17:21:00,83.0,56.0,29.76,SW,223,10.0,17.0,40,0.00,,,0.00,weatherlink.com 1.10,2013-04-29 22:21:00,
2013-04-29 17:36:00,82.7,56.0,29.76,SW,225,10.0,14.0,40,0.00,,,0.00,weatherlink.com 1.10,2013-04-29 22:36:00,
2013-04-29 17:51:00,83.1,53.0,29.76,WSW,254,9.0,18.0,36,0.00,,,0.00,weatherlink.com 1.10,2013-04-29 22:51:00,
2013-04-29 18:06:00,82.8,55.0,29.76,West,259,6.0,13.0,38,0.00,,,0.00,weatherlink.com 1.10,2013-04-29 23:06:00,
2013-04-29 18:21:00,82.4,53.0,29.75,SSW,207,7.0,14.0,36,0.00,,,0.00,weatherlink.com 1.10,2013-04-29 23:21:00,
2013-04-29 18:36:00,81.0,54.0,29.75,WSW,250,3.0,18.0,40,0.00,,,0.00,weatherlink.com 1.10,2013-04-29 23:36:00,
2013-04-29 18:51:00,79.1,60.0,29.75,SE,138,3.0,11.0,52,0.00,,,0.00,weatherlink.com 1.10,2013-04-29 23:51:00,
2013-04-29 19:06:00,77.3,60.0,29.75,South,170,4.0,11.0,56,0.00,,,0.00,weatherlink.com 1.10,2013-04-30 00:06:00,
2013-04-29 19:21:00,76.2,60.0,29.75,SSE,157,7.0,11.0,58,0.00,,,0.00,weatherlink.com 1.10,2013-04-30 00:21:00,
2013-04-29 19:36:00,75.2,60.0,29.76,SSE,151,4.0,9.0,59,0.00,,,0.00,weatherlink.com 1.10,2013-04-30 00:36:00,
2013-04-29 19:51:00,74.5,59.0,29.76,SSE,167,6.0,11.0,58,0.00,,,0.00,weatherlink.com 1.10,2013-04-30 00:51:00,
2013-04-29 20:06:00,73.2,58.0,29.76,South,169,6.0,13.0,60,0.00,,,0.00,weatherlink.com 1.10,2013-04-30 01:06:00,
2013-04-29 20:21:00,72.4,58.0,29.77,SE,145,6.0,11.0,61,0.00,,,0.00,weatherlink.com 1.10,2013-04-30 01:21:00,
2013-04-29 20:36:00,71.9,59.0,29.77,SSE,156,7.0,10.0,63,0.00,,,0.00,weatherlink.com 1.10,2013-04-30 01:36:00,
2013-04-29 20:51:00,70.8,58.0,29.78,SSE,161,3.0,10.0,65,0.00,,,0.00,weatherlink.com 1.10,2013-04-30 01:51:00,
2013-04-29 21:06:00,70.2,59.0,29.78,SSE,158,3.0,10.0,67,0.00,,,0.00,weatherlink.com 1.10,2013-04-30 02:06:00,
2013-04-29 21:21:00,69.8,59.0,29.79,SSE,167,4.0,10.0,69,0.00,,,0.00,weatherlink.com 1.10,2013-04-30 02:21:00,
2013-04-29 21:36:00,69.2,59.0,29.79,SSE,155,5.0,11.0,71,0.00,,,0.00,weatherlink.com 1.10,2013-04-30 02:36:00,
2013-04-29 21:51:00,69.1,59.0,29.79,SE,146,8.0,10.0,71,0.00,,,0.00,weatherlink.com 1.10,2013-04-30 02:51:00,
2013-04-29 22:06:00,69.0,59.0,29.79,South,173,5.0,11.0,71,0.00,,,0.00,weatherlink.com 1.10,2013-04-30 03:06:00,
2013-04-29 22:21:00,68.7,59.0,29.79,SSE,153,7.0,14.0,72,0.00,,,0.00,weatherlink.com 1.10,2013-04-30 03:21:00,
2013-04-29 22:36:00,68.5,59.0,29.80,SSE,156,6.0,12.0,72,0.00,,,0.00,weatherlink.com 1.10,2013-04-30 03:36:00,
2013-04-29 22:51:00,68.0,59.0,29.79,South,173,3.0,12.0,73,0.00,,,0.00,weatherlink.com 1.10,2013-04-30 03:51:00,
2013-04-29 23:06:00,67.3,59.0,29.79,South,189,3.0,12.0,74,0.00,,,0.00,weatherlink.com 1.10,2013-04-30 04:06:00,
2013-04-29 23:21:00,66.9,58.0,29.80,SSE,157,6.0,10.0,74,0.00,,,0.00,weatherlink.com 1.10,2013-04-30 04:21:00,
2013-04-29 23:36:00,66.4,58.0,29.79,SSE,161,6.0,11.0,75,0.00,,,0.00,weatherlink.com 1.10,2013-04-30 04:36:00,
2013-04-29 23:51:00,65.9,58.0,29.79,South,182,4.0,9.0,75,0.00,,,0.00,weatherlink.com 1.10,2013-04-30 04:51:00,